TimeCDT,TemperatureF,Dew PointF,Humidity,Sea Level PressureIn,VisibilityMPH,Wind Direction,Wind SpeedMPH,Gust SpeedMPH,PrecipitationIn,Events,Conditions,WindDirDegrees,DateUTC
12:15 AM,66.9,65.8,96,30.11,10.0,Calm,Calm,-,N/A,,Clear,0,2013-08-23 05:15:00
12:35 AM,66.2,65.5,98,30.11,7.0,Calm,Calm,-,N/A,,Clear,0,2013-08-23 05:35:00
12:55 AM,66.2,65.5,98,30.11,7.0,Calm,Calm,-,N/A,,Scattered Clouds,0,2013-08-23 05:55:00
1:15 AM,66.0,65.3,98,30.09,7.0,Calm,Calm,-,N/A,,Scattered Clouds,0,2013-08-23 06:15:00
1:35 AM,65.5,64.9,98,30.09,7.0,Calm,Calm,-,N/A,,Mostly Cloudy,0,2013-08-23 06:35:00
1:55 AM,65.8,65.5,99,30.09,5.0,Calm,Calm,-,N/A,,Overcast,0,2013-08-23 06:55:00
2:15 AM,65.8,65.8,100,30.08,0.2,Calm,Calm,-,N/A,Fog,Fog,0,2013-08-23 07:15:00
2:35 AM,66.2,66.2,100,30.08,0.2,Calm,Calm,-,N/A,Fog,Fog,0,2013-08-23 07:35:00
2:55 AM,66.2,66.2,100,30.09,0.8,Calm,Calm,-,N/A,,Overcast,0,2013-08-23 07:55:00
3:15 AM,66.0,66.0,100,30.08,0.2,Calm,Calm,-,N/A,Fog,Fog,0,2013-08-23 08:15:00
3:35 AM,65.7,65.7,100,30.09,0.5,Calm,Calm,-,N/A,Fog,Fog,0,2013-08-23 08:35:00
3:55 AM,65.7,65.7,100,30.09,0.8,Calm,Calm,-,N/A,,Overcast,0,2013-08-23 08:55:00
4:15 AM,65.7,65.7,100,30.09,0.2,Calm,Calm,-,N/A,Fog,Fog,0,2013-08-23 09:15:00
4:35 AM,65.8,65.8,100,30.10,0.5,Calm,Calm,-,N/A,Fog,Fog,0,2013-08-23 09:35:00
4:55 AM,65.7,65.7,100,30.11,0.8,Calm,Calm,-,N/A,,Overcast,0,2013-08-23 09:55:00
5:15 AM,65.5,65.5,100,30.11,3.0,Calm,Calm,-,N/A,,Overcast,0,2013-08-23 10:15:00
5:35 AM,65.7,65.7,100,30.12,1.2,Calm,Calm,-,N/A,,Overcast,0,2013-08-23 10:35:00
5:55 AM,65.5,65.5,100,30.12,0.8,Calm,Calm,-,N/A,,Overcast,0,2013-08-23 10:55:00
6:15 AM,65.5,65.5,100,30.12,4.0,Calm,Calm,-,N/A,,Overcast,0,2013-08-23 11:15:00
6:35 AM,65.3,65.3,100,30.12,0.5,Calm,Calm,-,N/A,Fog,Fog,0,2013-08-23 11:35:00
6:55 AM,65.5,65.5,100,30.12,1.5,Calm,Calm,-,N/A,,Overcast,0,2013-08-23 11:55:00
7:15 AM,65.7,65.7,100,30.12,4.0,Calm,Calm,-,N/A,,Overcast,0,2013-08-23 12:15:00
7:35 AM,65.7,65.5,99,30.13,5.0,Calm,Calm,-,N/A,,Overcast,0,2013-08-23 12:35:00
7:55 AM,66.2,66.0,99,30.12,5.0,Calm,Calm,-,N/A,,Overcast,0,2013-08-23 12:55:00
8:15 AM,66.9,65.8,96,30.12,10.0,Calm,Calm,-,N/A,,Overcast,0,2013-08-23 13:15:00
8:35 AM,67.3,66.2,96,30.12,10.0,Calm,Calm,-,N/A,,Overcast,0,2013-08-23 13:35:00
8:55 AM,67.5,66.4,96,30.12,10.0,Calm,Calm,-,N/A,,Overcast,0,2013-08-23 13:55:00
9:15 AM,68.4,67.1,96,30.13,10.0,Calm,Calm,-,N/A,,Overcast,0,2013-08-23 14:15:00
9:35 AM,69.1,67.1,93,30.13,10.0,Calm,Calm,-,N/A,,Overcast,0,2013-08-23 14:35:00
9:55 AM,70.7,67.5,89,30.13,10.0,Calm,Calm,-,N/A,,Scattered Clouds,0,2013-08-23 14:55:00
10:15 AM,74.1,68.5,83,30.13,10.0,Calm,Calm,-,N/A,,Scattered Clouds,0,2013-08-23 15:15:00
10:35 AM,76.5,69.6,79,30.13,10.0,Calm,Calm,-,N/A,,Scattered Clouds,0,2013-08-23 15:35:00
10:55 AM,77.9,69.4,75,30.13,10.0,Calm,Calm,-,N/A,,Mostly Cloudy,0,2013-08-23 15:55:00
11:15 AM,79.0,69.8,73,30.12,10.0,Calm,Calm,-,N/A,,Mostly Cloudy,0,2013-08-23 16:15:00
11:35 AM,80.4,70.0,70,30.11,10.0,ENE,3.5,-,N/A,,Scattered Clouds,70,2013-08-23 16:35:00
11:55 AM,80.8,70.0,70,30.11,10.0,Calm,Calm,-,N/A,,Mostly Cloudy,0,2013-08-23 16:55:00
12:15 PM,81.7,70.0,68,30.10,10.0,East,5.8,-,N/A,,Mostly Cloudy,100,2013-08-23 17:15:00
12:35 PM,81.3,69.1,66,30.10,10.0,NNE,6.9,-,N/A,,Mostly Cloudy,20,2013-08-23 17:35:00
12:55 PM,81.0,68.7,66,30.09,10.0,North,3.5,-,N/A,Thunderstorm,Scattered Clouds,360,2013-08-23 17:55:00
1:15 PM,79.9,68.7,69,30.09,10.0,North,4.6,-,N/A,,Clear,10,2013-08-23 18:15:00
1:35 PM,79.2,69.6,72,30.09,10.0,Calm,Calm,-,N/A,Thunderstorm,Clear,0,2013-08-23 18:35:00
1:55 PM,79.9,70.3,73,30.08,10.0,WNW,4.6,-,N/A,,Clear,300,2013-08-23 18:55:00
2:15 PM,79.9,70.9,74,30.08,10.0,West,3.5,-,N/A,,Clear,260,2013-08-23 19:15:00
2:35 PM,81.1,69.1,67,30.07,10.0,Calm,Calm,-,N/A,,Clear,0,2013-08-23 19:35:00
2:55 PM,81.3,69.3,67,30.06,10.0,Calm,Calm,-,N/A,,Clear,0,2013-08-23 19:55:00
3:15 PM,82.0,69.1,65,30.05,10.0,North,3.5,-,N/A,,Scattered Clouds,360,2013-08-23 20:15:00
3:35 PM,81.9,68.0,63,30.06,10.0,North,4.6,-,N/A,,Scattered Clouds,360,2013-08-23 20:35:00
3:55 PM,81.1,67.1,62,30.05,10.0,North,3.5,-,N/A,,Clear,350,2013-08-23 20:55:00
4:15 PM,80.6,67.3,64,30.05,10.0,NNE,3.5,-,N/A,,Clear,20,2013-08-23 21:15:00
4:35 PM,79.9,68.2,67,30.06,10.0,Calm,Calm,-,N/A,,Clear,0,2013-08-23 21:35:00
4:55 PM,80.1,68.5,68,30.07,10.0,Calm,Calm,-,N/A,,Clear,0,2013-08-23 21:55:00
5:15 PM,78.1,70.5,77,30.07,10.0,Calm,Calm,-,N/A,,Scattered Clouds,0,2013-08-23 22:15:00
5:35 PM,79.0,70.9,76,30.07,10.0,Calm,Calm,-,N/A,,Clear,0,2013-08-23 22:35:00
5:55 PM,78.4,71.1,78,30.07,10.0,Calm,Calm,-,N/A,,Clear,0,2013-08-23 22:55:00
6:15 PM,77.7,71.1,80,30.07,10.0,Calm,Calm,-,N/A,,Clear,0,2013-08-23 23:15:00
6:35 PM,76.1,71.2,85,30.07,10.0,Calm,Calm,-,N/A,,Clear,0,2013-08-23 23:35:00
6:55 PM,75.2,70.9,86,30.08,10.0,Calm,Calm,-,N/A,,Clear,0,2013-08-23 23:55:00
7:15 PM,74.1,70.3,88,30.09,10.0,West,3.5,-,N/A,,Clear,270,2013-08-24 00:15:00
7:35 PM,72.9,69.8,90,30.09,10.0,Calm,Calm,-,N/A,,Clear,0,2013-08-24 00:35:00
7:55 PM,72.1,69.1,90,30.09,10.0,Calm,Calm,-,N/A,,Clear,0,2013-08-24 00:55:00
8:15 PM,71.6,68.9,91,30.10,10.0,Calm,Calm,-,N/A,,Clear,0,2013-08-24 01:15:00
8:35 PM,70.9,68.2,91,30.11,10.0,Calm,Calm,-,N/A,,Clear,0,2013-08-24 01:35:00
8:55 PM,70.5,67.6,91,30.12,10.0,Calm,Calm,-,N/A,,Clear,0,2013-08-24 01:55:00
9:15 PM,69.8,67.5,92,30.13,7.0,Calm,Calm,-,N/A,,Clear,0,2013-08-24 02:15:00
9:35 PM,69.3,67.1,93,30.13,7.0,Calm,Calm,-,N/A,,Clear,0,2013-08-24 02:35:00
9:55 PM,68.2,66.9,96,30.14,7.0,Calm,Calm,-,N/A,,Clear,0,2013-08-24 02:55:00
10:15 PM,68.0,66.9,96,30.14,7.0,Calm,Calm,-,N/A,,Clear,0,2013-08-24 03:15:00
10:35 PM,67.8,66.6,96,30.14,7.0,Calm,Calm,-,N/A,,Clear,0,2013-08-24 03:35:00
10:55 PM,67.5,66.4,96,30.14,7.0,Calm,Calm,-,N/A,,Clear,0,2013-08-24 03:55:00
11:15 PM,66.7,66.2,98,30.15,5.0,Calm,Calm,-,N/A,,Clear,0,2013-08-24 04:15:00
11:35 PM,66.4,65.5,97,30.15,7.0,Calm,Calm,-,N/A,,Clear,0,2013-08-24 04:35:00
11:55 PM,66.2,65.5,98,30.15,7.0,Calm,Calm,-,N/A,,Clear,0,2013-08-24 04:55:00